AFR23T LFMN-LFBO

Flight info

Callsign AFR23T
Flight time N/A
Altitude 29000
Route TURIL DCT PADKO/N0455F300 DCT FJR/N0380F180 G393 AFRIC
Aircraft A320/M-SDE3FGHIRWY/LB1

Departure

Time 2026-05-07 20:02
Airport Nice-Côte d'Azur Airport (LFMN)

Arrival

Time N/A
Airport Toulouse-Blagnac Airport (LFBO)
Time Latitude Longitude Altitude Speed Heading
2026-05-07 19:25 43.66433 7.21326 22 ft 0 kts 350°
2026-05-07 19:52 43.66430 7.21326 21 ft 2 kts 350°
2026-05-07 19:52 43.66419 7.21329 21 ft 3 kts 348°
2026-05-07 19:52 43.66399 7.21335 21 ft 3 kts 345°
2026-05-07 19:52 43.66380 7.21343 25 ft 3 kts 338°
2026-05-07 19:53 43.66362 7.21355 21 ft 3 kts 323°
2026-05-07 19:53 43.66349 7.21373 21 ft 3 kts 286°
2026-05-07 19:53 43.66347 7.21387 25 ft 1 kts 261°
2026-05-07 19:53 43.66348 7.21391 25 ft 0 kts 261°
2026-05-07 19:56 43.66337 7.21389 22 ft 7 kts 191°
2026-05-07 19:56 43.66276 7.21335 21 ft 11 kts 224°
2026-05-07 19:56 43.66228 7.21267 21 ft 9 kts 227°
2026-05-07 19:56 43.66187 7.21208 21 ft 8 kts 225°
2026-05-07 19:57 43.66151 7.21158 21 ft 10 kts 225°
2026-05-07 19:57 43.66075 7.21052 21 ft 17 kts 225°
2026-05-07 19:57 43.65987 7.20932 21 ft 18 kts 225°
2026-05-07 19:57 43.65884 7.20848 21 ft 18 kts 181°
2026-05-07 19:58 43.65760 7.20875 21 ft 19 kts 171°
2026-05-07 19:58 43.65711 7.20885 24 ft 0 kts 172°
2026-05-07 19:58 43.65707 7.20886 23 ft 4 kts 172°
2026-05-07 19:59 43.65613 7.20906 21 ft 17 kts 171°
2026-05-07 19:59 43.65468 7.20938 22 ft 24 kts 171°
2026-05-07 19:59 43.65324 7.20922 22 ft 21 kts 219°
2026-05-07 19:59 43.65217 7.20770 21 ft 23 kts 224°
2026-05-07 20:00 43.65100 7.20611 22 ft 25 kts 224°
2026-05-07 20:00 43.64984 7.20449 22 ft 20 kts 224°
2026-05-07 20:00 43.64888 7.20312 21 ft 21 kts 226°
2026-05-07 20:00 43.64776 7.20182 22 ft 21 kts 200°
2026-05-07 20:01 43.64694 7.20266 23 ft 11 kts 107°
2026-05-07 20:01 43.64704 7.20291 23 ft 0 kts 48°
2026-05-07 20:01 43.64818 7.20451 24 ft 59 kts 45°
2026-05-07 20:02 43.65272 7.21074 22 ft 122 kts 45°
2026-05-07 20:02 43.66008 7.22075 140 ft 158 kts 45°
2026-05-07 20:02 43.66772 7.23133 793 ft 156 kts 53°
2026-05-07 20:02 43.67017 7.24552 1326 ft 158 kts 109°
2026-05-07 20:03 43.66352 7.25826 1691 ft 177 kts 140°
2026-05-07 20:03 43.65344 7.26984 1924 ft 205 kts 138°
2026-05-07 20:03 43.64209 7.28404 2075 ft 239 kts 137°
2026-05-07 20:03 43.63014 7.29965 3115 ft 227 kts 135°
2026-05-07 20:04 43.61897 7.31466 4154 ft 223 kts 135°